| time (UTC) | temp F | wind direction | speed knots | gust knots | rain 1hr in | rain 24hr in | rain mn in | humidity % | barometer mb |
| 20260505140535 | 85 | 90 | 5.2 | 9.6 | 0.00 | 0.00 | 0.00 | 72 | 1019.2 |
| 20260505125022 | 82 | 90 | 0.9 | 8.7 | 0.00 | 0.00 | 0.00 | 78 | 1018.8 |
| 20260505124534 | 82 | 109 | 1.7 | 7.0 | 0.00 | 0.00 | 0.00 | 79 | 1018.8 |
| 20260505124021 | 82 | 148 | 2.6 | 7.0 | 0.00 | 0.00 | 0.00 | 79 | 1018.8 |
| 20260505123518 | 82 | 73 | 1.7 | 7.0 | 0.00 | 0.00 | 0.00 | 80 | 1018.7 |
| 20260505123017 | 81 | 94 | 0.9 | 7.8 | 0.00 | 0.00 | 0.00 | 79 | 1018.7 |
| 20260505122515 | 81 | 57 | 2.6 | 10.4 | 0.00 | 0.00 | 0.00 | 79 | 1018.7 |
| 20260505122014 | 81 | 155 | 3.5 | 10.4 | 0.00 | 0.00 | 0.00 | 80 | 1018.8 |
| 20260505121525 | 80 | 102 | 2.6 | 7.8 | 0.00 | 0.00 | 0.00 | 81 | 1018.7 |
| 20260505121013 | 80 | 121 | 1.7 | 7.8 | 0.00 | 0.00 | 0.00 | 82 | 1018.5 |
| 20260505120510 | 80 | 113 | 2.6 | 7.8 | 0.00 | 0.00 | 0.00 | 81 | 1018.5 |
| 20260505120009 | 80 | 93 | 2.6 | 8.7 | 0.00 | 0.00 | 0.00 | 82 | 1018.5 |
| 20260505115507 | 80 | 102 | 1.7 | 8.7 | 0.00 | 0.00 | 0.00 | 82 | 1018.5 |
| 20260505115007 | 79 | 145 | 0.9 | 8.7 | 0.00 | 0.00 | 0.00 | 83 | 1018.4 |
| 20260505114504 | 79 | 107 | 0.9 | 7.8 | 0.00 | 0.00 | 0.00 | 84 | 1018.4 |
| 20260505114003 | 79 | 148 | 2.6 | 7.8 | 0.00 | 0.00 | 0.00 | 85 | 1018.4 |
| 20260505113501 | 78 | 40 | 0.9 | 6.1 | 0.00 | 0.00 | 0.00 | 86 | 1018.4 |
| 20260505113105 | 78 | 32 | 1.7 | 7.0 | 0.00 | 0.00 | 0.00 | 86 | 1018.4 |
| 20260505112559 | 78 | 86 | 0.9 | 7.0 | 0.00 | 0.00 | 0.00 | 86 | 1018.4 |
| 20260505112058 | 78 | 355 | 0.0 | 3.5 | 0.00 | 0.00 | 0.00 | 87 | 1018.3 |
| 20260505111557 | 78 | 102 | 0.9 | 3.5 | 0.00 | 0.00 | 0.00 | 87 | 1018.3 |
| 20260505111057 | 77 | 102 | 0.0 | 5.2 | 0.00 | 0.00 | 0.00 | 88 | 1018.4 |
| 20260505110557 | 77 | 102 | 0.9 | 5.2 | 0.00 | 0.00 | 0.00 | 89 | 1018.4 |
| 20260505102040 | 75 | 163 | 0.0 | 1.7 | 0.00 | 0.00 | 0.00 | 92 | 1017.6 |
| 20260505101542 | 74 | 163 | 0.0 | 1.7 | 0.00 | 0.00 | 0.00 | 91 | 1017.5 |
| 20260505101037 | 74 | 162 | 0.0 | 0.0 | 0.00 | 0.00 | 0.00 | 91 | 1017.5 |
| 20260505100537 | 74 | 162 | 0.0 | 2.6 | 0.00 | 0.00 | 0.00 | 91 | 1017.5 |
| 20260505100043 | 74 | 162 | 0.0 | 2.6 | 0.00 | 0.00 | 0.00 | 91 | 1017.5 |
| 20260505095537 | 74 | 161 | 0.0 | 2.6 | 0.00 | 0.00 | 0.00 | 91 | 1017.5 |
| 20260505095037 | 75 | 155 | 0.0 | 2.6 | 0.00 | 0.00 | 0.00 | 91 | 1017.3 |
| 20260505094536 | 75 | 157 | 0.0 | 0.9 | 0.00 | 0.00 | 0.00 | 91 | 1017.4 |
| 20260505094034 | 75 | 157 | 0.0 | 0.0 | 0.00 | 0.00 | 0.00 | 91 | 1017.5 |
| 20260505093534 | 75 | 157 | 0.0 | 0.0 | 0.00 | 0.00 | 0.00 | 91 | 1017.5 |
| 20260505093034 | 75 | 157 | 0.0 | 0.0 | 0.00 | 0.00 | 0.00 | 91 | 1017.5 |
| 20260505092534 | 75 | 157 | 0.0 | 0.0 | 0.00 | 0.00 | 0.00 | 91 | 1017.5 |
| 20260505092033 | 75 | 157 | 0.0 | 0.0 | 0.00 | 0.00 | 0.00 | 91 | 1017.4 |
| 20260505091537 | 75 | 157 | 0.0 | 0.0 | 0.00 | 0.00 | 0.00 | 91 | 1017.5 |
| 20260505091032 | 75 | 157 | 0.0 | 0.0 | 0.00 | 0.00 | 0.00 | 91 | 1017.4 |
| 20260505090532 | 75 | 157 | 0.0 | 0.0 | 0.00 | 0.00 | 0.00 | 91 | 1017.4 |
| 20260505090034 | 75 | 157 | 0.0 | 0.0 | 0.00 | 0.00 | 0.00 | 91 | 1017.4 |
| 20260505085532 | 75 | 157 | 0.0 | 1.7 | 0.00 | 0.00 | 0.00 | 91 | 1017.3 |
| 20260505085034 | 75 | 157 | 0.0 | 1.7 | 0.00 | 0.00 | 0.00 | 91 | 1017.3 |
| 20260505084532 | 75 | 155 | 0.0 | 0.0 | 0.00 | 0.00 | 0.00 | 90 | 1017.3 |
| 20260505084030 | 75 | 155 | 0.0 | 0.0 | 0.00 | 0.00 | 0.00 | 90 | 1017.2 |
| 20260505083530 | 75 | 155 | 0.0 | 0.9 | 0.00 | 0.00 | 0.00 | 91 | 1017.2 |
| 20260505083042 | 75 | 156 | 0.0 | 1.7 | 0.00 | 0.00 | 0.00 | 91 | 1017.2 |
| 20260505082534 | 75 | 156 | 0.0 | 1.7 | 0.00 | 0.00 | 0.00 | 90 | 1017.1 |
| 20260505082030 | 75 | 156 | 0.0 | 0.9 | 0.00 | 0.00 | 0.00 | 91 | 1017.1 |
| 20260505081531 | 75 | 156 | 0.0 | 1.7 | 0.00 | 0.00 | 0.00 | 90 | 1017.1 |
| 20260505081029 | 75 | 156 | 0.0 | 1.7 | 0.00 | 0.00 | 0.00 | 90 | 1017.1 |
| 20260505080533 | 75 | 156 | 0.0 | 0.9 | 0.00 | 0.00 | 0.00 | 90 | 1017.0 |
| 20260505080042 | 75 | 156 | 0.0 | 0.0 | 0.00 | 0.00 | 0.00 | 90 | 1016.9 |
| 20260505075531 | 75 | 156 | 0.0 | 0.0 | 0.00 | 0.00 | 0.00 | 90 | 1016.9 |
| 20260505075031 | 75 | 156 | 0.0 | 0.0 | 0.00 | 0.00 | 0.00 | 90 | 1016.7 |
| 20260505074527 | 75 | 156 | 0.0 | 0.0 | 0.00 | 0.00 | 0.00 | 90 | 1016.7 |
| 20260505074030 | 75 | 156 | 0.0 | 0.0 | 0.00 | 0.00 | 0.00 | 90 | 1016.7 |
| 20260505073527 | 75 | 156 | 0.0 | 0.0 | 0.00 | 0.00 | 0.00 | 90 | 1016.7 |
| 20260505073027 | 75 | 156 | 0.0 | 0.0 | 0.00 | 0.00 | 0.00 | 90 | 1016.7 |
| 20260505072525 | 75 | 156 | 0.0 | 0.0 | 0.00 | 0.00 | 0.00 | 90 | 1016.8 |
| 20260505072027 | 75 | 156 | 0.0 | 0.0 | 0.00 | 0.00 | 0.00 | 90 | 1016.8 |
| 20260505071535 | 75 | 156 | 0.0 | 0.0 | 0.00 | 0.00 | 0.00 | 90 | 1016.9 |
| 20260505071025 | 75 | 156 | 0.0 | 0.9 | 0.00 | 0.00 | 0.00 | 90 | 1016.9 |
| 20260505070525 | 76 | 156 | 0.0 | 0.9 | 0.00 | 0.00 | 0.00 | 90 | 1016.8 |
| 20260505070028 | 75 | 156 | 0.0 | 4.3 | 0.00 | 0.00 | 0.00 | 90 | 1016.8 |
| 20260505065523 | 76 | 156 | 0.9 | 4.3 | 0.00 | 0.00 | 0.00 | 90 | 1016.9 |
| 20260505065023 | 76 | 154 | 0.0 | 0.0 | 0.00 | 0.00 | 0.00 | 90 | 1017.0 |
| 20260505064524 | 76 | 154 | 0.0 | 0.0 | 0.00 | 0.00 | 0.00 | 90 | 1016.9 |
| 20260505064023 | 76 | 154 | 0.0 | 0.9 | 0.00 | 0.00 | 0.00 | 90 | 1016.9 |
| 20260505063522 | 76 | 154 | 0.0 | 0.9 | 0.00 | 0.00 | 0.00 | 90 | 1016.8 |
| 20260505063031 | 76 | 151 | 0.0 | 1.7 | 0.00 | 0.00 | 0.00 | 90 | 1016.9 |
| 20260505062522 | 76 | 151 | 0.0 | 1.7 | 0.00 | 0.00 | 0.00 | 90 | 1017.0 |
| 20260505062030 | 76 | 150 | 0.0 | 2.6 | 0.00 | 0.00 | 0.00 | 90 | 1017.0 |
| 20260505061527 | 75 | 151 | 0.0 | 2.6 | 0.00 | 0.00 | 0.00 | 90 | 1017.1 |
| 20260505061026 | 76 | 151 | 0.0 | 2.6 | 0.00 | 0.00 | 0.00 | 90 | 1017.1 |
| 20260505060520 | 76 | 164 | 0.0 | 2.6 | 0.00 | 0.00 | 0.00 | 90 | 1017.0 |
| 20260505060020 | 76 | 71 | 0.0 | 3.5 | 0.00 | 0.00 | 0.00 | 90 | 1017.0 |
| 20260505055519 | 75 | 30 | 0.9 | 5.2 | 0.00 | 0.00 | 0.00 | 90 | 1017.1 |
| 20260505055018 | 76 | 169 | 0.0 | 5.2 | 0.00 | 0.00 | 0.00 | 90 | 1017.1 |
| 20260505054518 | 76 | 128 | 0.0 | 4.3 | 0.00 | 0.00 | 0.00 | 90 | 1017.3 |
| 20260505054017 | 76 | 184 | 0.0 | 1.7 | 0.00 | 0.00 | 0.00 | 90 | 1017.3 |
| 20260505053516 | 76 | 103 | 0.0 | 0.0 | 0.00 | 0.00 | 0.00 | 90 | 1017.3 |
| 20260505053017 | 75 | 103 | 0.0 | 0.0 | 0.00 | 0.00 | 0.00 | 90 | 1017.5 |
| 20260505052515 | 76 | 103 | 0.0 | 1.7 | 0.00 | 0.00 | 0.00 | 90 | 1017.6 |
| 20260505052015 | 76 | 104 | 0.0 | 1.7 | 0.00 | 0.00 | 0.00 | 90 | 1017.5 |
| 20260505051522 | 76 | 141 | 0.0 | 1.7 | 0.00 | 0.00 | 0.00 | 90 | 1017.6 |
| 20260505051014 | 76 | 141 | 0.0 | 1.7 | 0.00 | 0.00 | 0.00 | 90 | 1017.6 |
| 20260505050518 | 76 | 136 | 0.0 | 1.7 | 0.00 | 0.00 | 0.00 | 90 | 1017.7 |
| 20260505041509 | 76 | 127 | 0.0 | 0.0 | 0.00 | 0.00 | 0.00 | 88 | 1018.2 |
| 20260505041008 | 76 | 127 | 0.0 | 0.0 | 0.00 | 0.00 | 0.00 | 88 | 1018.3 |
| 20260505040507 | 76 | 127 | 0.0 | 0.0 | 0.00 | 0.00 | 0.00 | 88 | 1018.3 |
| 20260505040007 | 76 | 127 | 0.0 | 0.0 | 0.00 | 0.00 | 0.00 | 88 | 1018.4 |
| 20260505035505 | 76 | 127 | 0.0 | 0.0 | 0.00 | 0.00 | 0.00 | 89 | 1018.4 |
| 20260505035005 | 76 | 127 | 0.0 | 1.7 | 0.00 | 0.00 | 0.00 | 89 | 1018.6 |
| 20260505034505 | 76 | 127 | 0.0 | 1.7 | 0.00 | 0.00 | 0.00 | 89 | 1018.6 |
| 20260505034005 | 76 | 127 | 0.0 | 0.0 | 0.00 | 0.00 | 0.00 | 89 | 1018.7 |
| 20260505033505 | 76 | 127 | 0.0 | 0.0 | 0.00 | 0.00 | 0.00 | 89 | 1018.7 |
| 20260505033007 | 75 | 127 | 0.0 | 0.0 | 0.00 | 0.00 | 0.00 | 89 | 1018.8 |
| 20260505032508 | 76 | 127 | 0.0 | 0.0 | 0.00 | 0.00 | 0.00 | 89 | 1018.8 |
| 20260505032007 | 76 | 127 | 0.0 | 0.0 | 0.00 | 0.00 | 0.00 | 88 | 1018.8 |
| 20260505031516 | 76 | 127 | 0.0 | 0.0 | 0.00 | 0.00 | 0.00 | 89 | 1018.8 |
| 20260505031004 | 76 | 127 | 0.0 | 0.0 | 0.00 | 0.00 | 0.00 | 88 | 1018.6 |
| 20260505030504 | 76 | 127 | 0.0 | 0.0 | 0.00 | 0.00 | 0.00 | 88 | 1018.7 |
| 20260505030004 | 76 | 127 | 0.0 | 0.0 | 0.00 | 0.00 | 0.00 | 88 | 1018.7 |
| 20260505025509 | 76 | 127 | 0.0 | 0.0 | 0.00 | 0.00 | 0.00 | 88 | 1018.7 |
| 20260505025006 | 76 | 127 | 0.0 | 0.0 | 0.00 | 0.00 | 0.00 | 87 | 1018.6 |
| 20260505024504 | 77 | 127 | 0.0 | 1.7 | 0.00 | 0.00 | 0.00 | 87 | 1018.6 |
| 20260505024003 | 77 | 127 | 0.0 | 1.7 | 0.00 | 0.00 | 0.00 | 87 | 1018.6 |
| 20260505023503 | 77 | 127 | 0.0 | 0.9 | 0.00 | 0.00 | 0.00 | 86 | 1018.6 |
| 20260505023003 | 77 | 127 | 0.0 | 0.9 | 0.00 | 0.00 | 0.00 | 86 | 1018.4 |
| 20260505022503 | 77 | 127 | 0.0 | 0.9 | 0.00 | 0.00 | 0.00 | 86 | 1018.3 |
| 20260505022003 | 77 | 127 | 0.0 | 0.0 | 0.00 | 0.00 | 0.00 | 86 | 1018.6 |
| 20260505021503 | 77 | 127 | 0.0 | 0.9 | 0.00 | 0.00 | 0.00 | 86 | 1018.5 |
| 20260505021003 | 77 | 127 | 0.0 | 0.9 | 0.00 | 0.00 | 0.00 | 85 | 1018.4 |
| 20260505020503 | 77 | 127 | 0.0 | 1.7 | 0.00 | 0.00 | 0.00 | 85 | 1018.4 |
| 20260505020003 | 77 | 127 | 0.9 | 1.7 | 0.00 | 0.00 | 0.00 | 85 | 1018.6 |
| 20260505015502 | 77 | 127 | 0.0 | 2.6 | 0.00 | 0.00 | 0.00 | 85 | 1018.4 |
| 20260505015002 | 77 | 127 | 0.9 | 2.6 | 0.00 | 0.00 | 0.00 | 85 | 1018.6 |
| 20260505014506 | 77 | 127 | 0.0 | 1.7 | 0.00 | 0.00 | 0.00 | 85 | 1018.4 |
| 20260505014002 | 77 | 127 | 0.0 | 0.9 | 0.00 | 0.00 | 0.00 | 85 | 1018.3 |
| 20260505013503 | 78 | 127 | 0.0 | 5.2 | 0.00 | 0.00 | 0.00 | 84 | 1018.2 |
| 20260505013002 | 77 | 127 | 0.9 | 5.2 | 0.00 | 0.00 | 0.00 | 85 | 1018.2 |
| 20260505012504 | 78 | 107 | 0.9 | 5.2 | 0.00 | 0.00 | 0.00 | 84 | 1018.2 |
| 20260505012002 | 78 | 119 | 1.7 | 5.2 | 0.00 | 0.00 | 0.00 | 84 | 1018.1 |
| 20260505011500 | 78 | 119 | 1.7 | 5.2 | 0.00 | 0.00 | 0.00 | 84 | 1018.0 |
| 20260505011001 | 78 | 124 | 1.7 | 5.2 | 0.00 | 0.00 | 0.00 | 83 | 1017.9 |
| 20260505010502 | 78 | 107 | 0.0 | 5.2 | 0.00 | 0.00 | 0.00 | 84 | 1017.9 |
| 20260505010001 | 78 | 108 | 1.7 | 5.2 | 0.00 | 0.00 | 0.00 | 83 | 1017.9 |
| 20260505005601 | 78 | 121 | 0.0 | 2.6 | 0.00 | 0.00 | 0.00 | 83 | 1017.8 |
| 20260505005100 | 78 | 121 | 0.9 | 3.5 | 0.00 | 0.00 | 0.00 | 83 | 1017.8 |
| 20260505004600 | 78 | 121 | 0.0 | 1.7 | 0.00 | 0.00 | 0.00 | 83 | 1017.8 |
| 20260505004059 | 78 | 121 | 0.0 | 3.5 | 0.00 | 0.00 | 0.00 | 83 | 1017.8 |
| 20260505003559 | 78 | 121 | 0.9 | 3.5 | 0.00 | 0.00 | 0.00 | 82 | 1017.7 |
| 20260505003119 | 78 | 121 | 0.0 | 5.2 | 0.00 | 0.00 | 0.00 | 82 | 1017.6 |
| 20260505002559 | 78 | 121 | 0.0 | 5.2 | 0.00 | 0.00 | 0.00 | 82 | 1017.7 |
| 20260505002502 | 78 | 121 | 0.0 | 5.2 | 0.00 | 0.00 | 0.00 | 82 | 1017.5 |
| 20260505002059 | 78 | 121 | 1.7 | 5.2 | 0.00 | 0.00 | 0.00 | 82 | 1017.6 |
| 20260505001559 | 78 | 123 | 0.9 | 5.2 | 0.00 | 0.00 | 0.00 | 82 | 1017.7 |
| 20260505001058 | 78 | 105 | 0.9 | 1.7 | 0.00 | 0.00 | 0.00 | 82 | 1017.6 |
| 20260505000558 | 79 | 105 | 0.0 | 5.2 | 0.00 | 0.00 | 0.00 | 81 | 1017.7 |
| 20260504235558 | 79 | 108 | 0.0 | 3.5 | 0.00 | 0.00 | 0.00 | 81 | 1017.7 |
| 20260504235058 | 79 | 96 | 0.9 | 3.5 | 0.00 | 0.00 | 0.00 | 81 | 1017.6 |
| 20260504234558 | 79 | 96 | 0.0 | 0.9 | 0.00 | 0.00 | 0.00 | 80 | 1017.6 |
| 20260504234057 | 79 | 96 | 0.0 | 2.6 | 0.00 | 0.00 | 0.00 | 80 | 1017.6 |
| 20260504233600 | 79 | 96 | 0.9 | 5.2 | 0.00 | 0.00 | 0.00 | 80 | 1017.4 |
| 20260504233105 | 79 | 150 | 0.9 | 6.1 | 0.00 | 0.00 | 0.00 | 79 | 1017.5 |
| 20260504232557 | 79 | 106 | 1.7 | 6.1 | 0.00 | 0.00 | 0.00 | 79 | 1017.4 |
| 20260504232057 | 79 | 155 | 1.7 | 6.1 | 0.00 | 0.00 | 0.00 | 79 | 1017.3 |
| 20260504231557 | 79 | 155 | 0.9 | 4.3 | 0.00 | 0.00 | 0.00 | 78 | 1017.2 |
| 20260504231057 | 80 | 343 | 0.0 | 3.5 | 0.00 | 0.00 | 0.00 | 78 | 1017.2 |
| 20260504230557 | 80 | 121 | 0.9 | 5.2 | 0.00 | 0.00 | 0.00 | 78 | 1017.1 |
| 20260504230113 | 80 | 94 | 1.7 | 6.1 | 0.00 | 0.00 | 0.00 | 77 | 1017.1 |
| 20260504225555 | 80 | 98 | 1.7 | 5.2 | 0.00 | 0.00 | 0.00 | 77 | 1017.0 |
| 20260504225058 | 80 | 96 | 1.7 | 5.2 | 0.00 | 0.00 | 0.00 | 77 | 1017.0 |
| 20260504224620 | 80 | 106 | 0.0 | 5.2 | 0.00 | 0.00 | 0.00 | 77 | 1017.0 |
| 20260504224055 | 80 | 107 | 0.9 | 5.2 | 0.00 | 0.00 | 0.00 | 76 | 1016.8 |
| 20260504223555 | 80 | 84 | 0.0 | 5.2 | 0.00 | 0.00 | 0.00 | 76 | 1016.8 |
| 20260504223058 | 80 | 103 | 0.9 | 7.0 | 0.00 | 0.00 | 0.00 | 76 | 1016.8 |
| 20260504222556 | 80 | 119 | 1.7 | 7.0 | 0.00 | 0.00 | 0.00 | 76 | 1016.7 |
| 20260504222055 | 80 | 75 | 1.7 | 6.1 | 0.00 | 0.00 | 0.00 | 76 | 1016.6 |
| 20260504221555 | 80 | 112 | 2.6 | 5.2 | 0.00 | 0.00 | 0.00 | 75 | 1016.5 |
| 20260504221054 | 81 | 305 | 1.7 | 10.4 | 0.00 | 0.00 | 0.00 | 75 | 1016.7 |
| 20260504220555 | 81 | 71 | 2.6 | 10.4 | 0.00 | 0.00 | 0.00 | 75 | 1016.6 |
| 20260504220058 | 81 | 10 | 2.6 | 9.6 | 0.00 | 0.00 | 0.00 | 76 | 1016.4 |
| 20260504215554 | 81 | 126 | 2.6 | 9.6 | 0.00 | 0.00 | 0.00 | 76 | 1016.2 |
| 20260504215153 | 81 | 59 | 1.7 | 7.0 | 0.00 | 0.00 | 0.00 | 77 | 1016.2 |
| 20260504214553 | 81 | 74 | 2.6 | 7.0 | 0.00 | 0.00 | 0.00 | 77 | 1016.3 |
| 20260504214055 | 81 | 345 | 2.6 | 7.0 | 0.00 | 0.00 | 0.00 | 77 | 1016.1 |
| 20260504213553 | 81 | 251 | 1.7 | 6.1 | 0.00 | 0.00 | 0.00 | 77 | 1015.9 |
| 20260504213100 | 81 | 325 | 1.7 | 8.7 | 0.00 | 0.00 | 0.00 | 77 | 1016.0 |
| 20260504212555 | 81 | 94 | 3.5 | 8.7 | 0.00 | 0.00 | 0.00 | 76 | 1015.9 |
| 20260504212055 | 82 | 122 | 1.7 | 9.6 | 0.00 | 0.00 | 0.00 | 76 | 1015.9 |
| 20260504211558 | 82 | 85 | 2.6 | 8.7 | 0.00 | 0.00 | 0.00 | 76 | 1016.0 |
| 20260504211153 | 82 | 135 | 3.5 | 9.6 | 0.00 | 0.00 | 0.00 | 76 | 1015.8 |
| 20260504210554 | 82 | 106 | 3.5 | 9.6 | 0.00 | 0.00 | 0.00 | 76 | 1015.8 |
| 20260504210101 | 82 | 87 | 3.5 | 11.3 | 0.00 | 0.00 | 0.00 | 75 | 1015.7 |
| 20260504205551 | 83 | 95 | 4.3 | 11.3 | 0.00 | 0.00 | 0.00 | 74 | 1015.7 |
| 20260504205051 | 83 | 269 | 2.6 | 11.3 | 0.00 | 0.00 | 0.00 | 73 | 1015.7 |
| 20260504204554 | 83 | 101 | 2.6 | 11.3 | 0.00 | 0.00 | 0.00 | 72 | 1015.7 |
| 20260504204054 | 84 | 355 | 4.3 | 11.3 | 0.00 | 0.00 | 0.00 | 71 | 1015.5 |
| 20260504203551 | 84 | 13 | 2.6 | 9.6 | 0.00 | 0.00 | 0.00 | 70 | 1015.5 |
| 20260504203051 | 84 | 63 | 2.6 | 12.2 | 0.00 | 0.00 | 0.00 | 71 | 1015.3 |
| 20260504202550 | 84 | 281 | 3.5 | 12.2 | 0.00 | 0.00 | 0.00 | 70 | 1015.5 |
| 20260504202053 | 84 | 136 | 3.5 | 9.6 | 0.00 | 0.00 | 0.00 | 69 | 1015.6 |
| 20260504201550 | 84 | 329 | 3.5 | 9.6 | 0.00 | 0.00 | 0.00 | 69 | 1015.5 |
| 20260504201049 | 84 | 101 | 3.5 | 7.8 | 0.00 | 0.00 | 0.00 | 69 | 1015.5 |
| 20260504200549 | 84 | 264 | 2.6 | 11.3 | 0.00 | 0.00 | 0.00 | 69 | 1015.7 |
| 20260504200059 | 85 | 250 | 2.6 | 7.8 | 0.00 | 0.00 | 0.00 | 69 | 1015.8 |
| 20260504195548 | 85 | 28 | 2.6 | 7.8 | 0.00 | 0.00 | 0.00 | 69 | 1015.6 |
| 20260504195047 | 85 | 202 | 1.7 | 9.6 | 0.00 | 0.00 | 0.00 | 67 | 1015.6 |
| 20260504194547 | 85 | 119 | 2.6 | 9.6 | 0.00 | 0.00 | 0.00 | 67 | 1015.7 |
| 20260504194046 | 85 | 72 | 3.5 | 9.6 | 0.00 | 0.00 | 0.00 | 67 | 1015.6 |
| 20260504193546 | 85 | 118 | 2.6 | 12.2 | 0.00 | 0.00 | 0.00 | 68 | 1015.7 |
| 20260504193048 | 85 | 143 | 4.3 | 9.6 | 0.00 | 0.00 | 0.00 | 68 | 1015.7 |
| 20260504192544 | 85 | 244 | 3.5 | 9.6 | 0.00 | 0.00 | 0.00 | 67 | 1015.7 |
| 20260504192044 | 86 | 78 | 2.6 | 7.0 | 0.00 | 0.00 | 0.00 | 68 | 1015.6 |
| 20260504191552 | 85 | 329 | 0.9 | 7.0 | 0.00 | 0.00 | 0.00 | 69 | 1015.8 |
| 20260504191042 | 84 | 215 | 1.7 | 8.7 | 0.00 | 0.00 | 0.00 | 70 | 1015.9 |
| 20260504190542 | 85 | 206 | 4.3 | 10.4 | 0.00 | 0.00 | 0.00 | 68 | 1016.0 |
| 20260504190041 | 85 | 111 | 4.3 | 10.4 | 0.00 | 0.00 | 0.00 | 68 | 1016.0 |
| 20260504185538 | 84 | 34 | 4.3 | 10.4 | 0.00 | 0.00 | 0.00 | 68 | 1016.0 |
| 20260504185042 | 86 | 117 | 3.5 | 12.2 | 0.00 | 0.00 | 0.00 | 67 | 1016.0 |
| 20260504184539 | 86 | 71 | 2.6 | 12.2 | 0.00 | 0.00 | 0.00 | 68 | 1016.0 |
| 20260504184039 | 85 | 50 | 2.6 | 9.6 | 0.00 | 0.00 | 0.00 | 68 | 1016.2 |
| 20260504183534 | 84 | 66 | 3.5 | 7.8 | 0.00 | 0.00 | 0.00 | 69 | 1016.4 |
| 20260504183037 | 84 | 311 | 2.6 | 8.7 | 0.00 | 0.00 | 0.00 | 68 | 1016.3 |
| 20260504182533 | 85 | 42 | 2.6 | 8.7 | 0.00 | 0.00 | 0.00 | 67 | 1016.2 |
| 20260504182033 | 86 | 98 | 2.6 | 12.2 | 0.00 | 0.00 | 0.00 | 66 | 1016.4 |
| 20260504181533 | 86 | 167 | 6.1 | 12.2 | 0.00 | 0.00 | 0.00 | 66 | 1016.6 |
| 20260504181031 | 87 | 46 | 3.5 | 13.9 | 0.00 | 0.00 | 0.00 | 64 | 1016.3 |
| 20260504180530 | 87 | 38 | 2.6 | 10.4 | 0.00 | 0.00 | 0.00 | 64 | 1016.5 |
| 20260504180030 | 87 | 342 | 1.7 | 8.7 | 0.00 | 0.00 | 0.00 | 64 | 1016.5 |
| 20260504175528 | 88 | 140 | 1.7 | 9.6 | 0.00 | 0.00 | 0.00 | 64 | 1016.6 |
| 20260504175027 | 87 | 273 | 2.6 | 9.6 | 0.00 | 0.00 | 0.00 | 63 | 1016.6 |
| 20260504174526 | 87 | 20 | 5.2 | 13.9 | 0.00 | 0.00 | 0.00 | 63 | 1016.7 |
| 20260504174027 | 87 | 98 | 5.2 | 13.9 | 0.00 | 0.00 | 0.00 | 64 | 1016.8 |
| 20260504173528 | 87 | 126 | 3.5 | 13.0 | 0.00 | 0.00 | 0.00 | 63 | 1016.7 |
| 20260504173025 | 87 | 92 | 2.6 | 10.4 | 0.00 | 0.00 | 0.00 | 63 | 1016.9 |
| 20260504172524 | 86 | 127 | 5.2 | 10.4 | 0.00 | 0.00 | 0.00 | 62 | 1017.0 |
| 20260504172024 | 87 | 131 | 4.3 | 9.6 | 0.00 | 0.00 | 0.00 | 61 | 1017.0 |
| 20260504171524 | 87 | 198 | 3.5 | 9.6 | 0.00 | 0.00 | 0.00 | 61 | 1017.2 |
| 20260504171024 | 87 | 80 | 4.3 | 10.4 | 0.00 | 0.00 | 0.00 | 62 | 1017.3 |
| 20260504170523 | 87 | 116 | 4.3 | 10.4 | 0.00 | 0.00 | 0.00 | 62 | 1017.5 |
| 20260504151011 | 85 | 135 | 3.5 | 8.7 | 0.00 | 0.00 | 0.00 | 65 | 1018.5 |
| 20260504150512 | 85 | 175 | 3.5 | 9.6 | 0.00 | 0.00 | 0.00 | 65 | 1018.3 |